Other Public Products
Issued by NWS Grand Forks, ND

Home | Current Version | Previous Version | Graphics & Text | Print | Product List | Glossary On
Versions: 1 2 3 4 5 6 7 8 9 10 11 12 13 14 15 16 17 18 19 20 21 22 23 24 25 26 27 28 29 30 31 32 33 34 35 36 37 38 39 40 41 42 43 44 45 46 47 48 49 50
202
FPUS83 KFGF 210031
OPUFGF
PRAIRIE TO PINES WEATHER ROUNDUP
NATIONAL WEATHER SERVICE EASTERN NORTH DAKOTA/GRAND FORKS ND
600 PM CST FRI JAN 20 2017

 **SATELLITE DATA USED TO AUGMENT SKY COVER AT AUTOMATED STATIONS**
 *****  WEATHER ACROSS EASTERN NORTH DAKOTA  *****

CITY           SKY/WX    TMP DP  RH WIND       PRES   REMARKS
GRAND FORKS    CLOUDY    36  33  89 SE8       29.45S
6HR MIN TEMP:  35; 6HR MAX TEMP:  36;

GRAND FORKS AF CLOUDY    34  33  99 E9        29.45R FOG
GRAND CITY NWS NOT AVBL
BUXTON           N/A     34  34  99 E12         N/A
DEVILS LAKE    CLOUDY    33  33 100 SE8       29.39S
6HR MIN TEMP:  33; 6HR MAX TEMP:  34; 6HR PCP: TRACE;

FARGO          CLOUDY    39  35  86 SE13      29.44R
6HR MIN TEMP:  38; 6HR MAX TEMP:  39;

WAHPETON ARPT  CLOUDY    34  32  93 SE8       29.46R
$$

 *****  WEATHER ACROSS CENTRAL AND WESTERN NORTH DAKOTA  *****

CITY           SKY/WX    TMP DP  RH WIND       PRES   REMARKS
JAMESTOWN      CLOUDY    33  33 100 SE14      29.36F FOG     WCI  23
6HR MIN TEMP:  33; 6HR MAX TEMP:  34;

BISMARCK       CLOUDY    31  30  96 W6        29.36R FOG
6HR MIN TEMP:  28; 6HR MAX TEMP:  32;

MINOT          CLOUDY    28  26  92 S8        29.35S WCI  20
6HR MIN TEMP:  25; 6HR MAX TEMP:  28;

MINOT AFB      CLOUDY    25  23  93 SW8       29.35S FOG     WCI  16
GARRISON         N/A     25  24  96 S3        29.34S
6HR MIN TEMP:  20; 6HR MAX TEMP:  26;

WILLISTON      FAIR      29  25  85 SW5       29.34S WCI  24
6HR MIN TEMP:  23; 6HR MAX TEMP:  33;

DICKINSON      FAIR      31  27  85 NW7       29.31R WCI  24
6HR MIN TEMP:  29; 6HR MAX TEMP:  32;

HETTINGER      MOCLDY    30  27  88 NW6       29.33R WCI  24
6HR MIN TEMP:  30; 6HR MAX TEMP:  34;

$$

 *****  OTHER OBSERVATIONS NORTHEAST NORTH DAKOTA  *****

CITY           SKY/WX    TMP DP  RH WIND       PRES   REMARKS
WALHALLA       NOT AVBL
LANGDON        NOT AVBL
CAVALIER       FOG       34  34 100 SE7       29.46R VSB 1/4
GRAFTON        CLOUDY    34  34 100 SE8       29.48R FOG
CANDO          NOT AVBL
FORT TOTTEN      N/A     33  33 100 SE6       29.95S
ROLLA            N/A    N/A N/A N/A MISG        N/A
RUGBY            N/A     32  32 100 SE7       29.37S FOG
 ***** THE ABOVE OBSERVATIONS ARE NON NWS ARE NOT QUALITY
        CONTROLLED AND MAY MIS-REPORT RAIN FOR SNOW...
$$

 *****  OTHER OBSERVATIONS SOUTHEAST NORTH DAKOTA *****

CITY           SKY/WX    TMP DP  RH WIND       PRES   REMARKS
COOPERSTOWN    FOG       34  34 100 SE13      29.41R VSB 1/4 WCI  25
VALLEY CITY    FOG       32  32 100 S9        29.41S VSB 1/4 WCI  24
OAKES          NOT AVBL
GWINNER        CLOUDY    36  36 100 SE17      29.39S
SHEYENNE NWR     N/A     34  34  99 SE10      29.95S
BUFFALO          N/A     33  33  96 E13         N/A  WCI  24
WYNDMERE         N/A     34  34 100 SE7         N/A
 ***** THE ABOVE OBSERVATIONS ARE NON NWS ARE NOT QUALITY
       CONTROLLED AND MAY MIS-REPORT RAIN FOR SNOW...
$$

  *****  WEATHER ACROSS NORTHERN MINNESOTA  *****

CITY           SKY/WX    TMP DP  RH WIND       PRES   REMARKS
FLAG ISLAND    RAIN      36  36 100 SE7       29.52S
WARROAD        LGT RAIN  36  30  80 E6        29.52S
ROSEAU         DRIZZLE   37  32  81 SE7       29.51R
HALLOCK        CLOUDY    36  36 100 SE10      29.47S FOG
THF RVR FALLS  MOCLDY    34  33  96 E10       29.49S
6HR MIN TEMP:  34; 6HR MAX TEMP:  37; 6HR PCP: TRACE;

HALSTAD          N/A     35  34  97 SE14        N/A
FOSSTON        CLOUDY    34  32  93 E8        29.50R
BAUDETTE       LGT RAIN  35  33  92 SE10      29.53R
6HR MIN TEMP:  35; 6HR MAX TEMP:  37; 6HR PCP:  0.14;

WASKISH        DRIZZLE   36  36 100 SE6       29.54R
CROOKSTON      CLOUDY    36  36 100 SE12      29.48R
$$
  *****  WEATHER ACROSS CENTRAL AND WEST MINNESOTA  *****

CITY           SKY/WX    TMP DP  RH WIND       PRES   REMARKS
BEMIDJI        CLOUDY    34  33  99 SE9       29.51S FOG
PARK RAPIDS    FOG       35  32  88 SE10      29.50S VSB 3/4
6HR MIN TEMP:  35; 6HR MAX TEMP:  35;

WADENA         FOG       34  34 100 SE7       29.51R VSB 1
DETROIT LAKES  CLOUDY    34  34 100 SE14      29.49S FOG     WCI  24
MOORHEAD       CLOUDY    36  34  93 SE12      29.45S
FERGUS FALLS   CLOUDY    36  36 100 SE13      29.50S
ELBOW LAKE     CLOUDY    35  35 100 SE12      29.47S FOG
6HR MIN TEMP:  33; 6HR MAX TEMP:  34;

MORRIS MN      CLOUDY    34  34 100 SE16      29.46S FOG     WCI  23
STAPLES        FOG       34  34 100 SE6       29.52S VSB 1
WHEATON        CLOUDY    43  43 100 SE10      29.47S FOG
$$
  *****  WEATHER ELSEWHERE ACROSS MINNESOTA  *****

CITY           SKY/WX    TMP DP  RH WIND       PRES   REMARKS
DULUTH         LGT SNOW  34  33  96 E12       29.58S VSB 3/4
6HR MIN TEMP:  34; 6HR MAX TEMP:  35; 6HR PCP:  0.14;

INTRNTL FALLS  LGT RAIN  36  35  96 E6        29.56S
6HR MIN TEMP:  36; 6HR MAX TEMP:  39; 6HR PCP:  0.04;

ELY            RAIN      34  34 100 CALM      29.59R
CLOQUET        FOG       34  34 100 E5        29.57S VSB 3/4
BRAINERD       FOG       34  34 100 SE7       29.55R VSB 1
6HR MIN TEMP:  34; 6HR MAX TEMP:  35;

HIBBING        CLOUDY    33  33 100 SE8       29.57R
6HR MIN TEMP:  33; 6HR MAX TEMP:  34; 6HR PCP:  0.09;

ALEXANDRIA     CLOUDY    34  33  96 SE12      29.50R FOG
6HR MIN TEMP:  33; 6HR MAX TEMP:  34;

SAINT CLOUD    FOG       35  35 100 E5        29.55S VSB 3/4
6HR MIN TEMP:  34; 6HR MAX TEMP:  35;

MINNEAPOLIS    FOG       35  34  96 SE10      29.56F VSB 3/4
6HR MIN TEMP:  35; 6HR MAX TEMP:  37;

$$

  *****  WEATHER ACROSS SOUTH DAKOTA  *****

CITY           SKY/WX    TMP DP  RH WIND       PRES   REMARKS
SIOUX FALLS    FOG       39  39 100 SE12      29.44R VSB 1/2
6HR MIN TEMP:  39; 6HR MAX TEMP:  40;

BROOKINGS      FOG       37  36  96 S9        29.41S VSB 1
WATERTOWN      FOG       35  35 100 SE10      29.39R VSB 1/4
6HR MIN TEMP:  35; 6HR MAX TEMP:  37;

HURON          FAIR      38  34  85 E3        29.35S
6HR MIN TEMP:  37; 6HR MAX TEMP:  44;

SISSETON         N/A     35  35 100 S12       29.41S
ABERDEEN       MOCLDY    33  30  88 SE6       29.37R
6HR MIN TEMP:  33; 6HR MAX TEMP:  36;

MITCHELL       MOCLDY    42  38  85 S13       29.38R
PIERRE         MOCLDY    15  12  88 W3        29.32S
6HR MIN TEMP:  14; 6HR MAX TEMP:  22;

MOBRIDGE       CLOUDY    30  27  88 N7        29.29F FOG     WCI  23
RAPID CITY     FAIR      37  28  70 NW15      29.32R
6HR MIN TEMP:  37; 6HR MAX TEMP:  42;

$$

  *****  SOME WEATHER IN NEARBY STATES *****

CITY           SKY/WX    TMP DP  RH WIND       PRES   REMARKS
GLASGOW MT     CLOUDY    33  29  85 S6        29.37R
6HR MIN TEMP:  33; 6HR MAX TEMP:  36;

GREAT FALLS MT FAIR      36  22  56 S5        29.35R
6HR MIN TEMP:  36; 6HR MAX TEMP:  42;

CHEYENNE WY    CLOUDY    33  18  53 NW15G21   29.40R WCI  23
6HR MIN TEMP:  33; 6HR MAX TEMP:  39;

SCOTTSBLUFF NE LGT RAIN  36  33  89 W8        29.40R
6HR MIN TEMP:  37; 6HR MAX TEMP:  42; 6HR PCP: TRACE;

OMAHA NE       CLOUDY    42  38  85 E6        29.46S FOG
6HR MIN TEMP:  42; 6HR MAX TEMP:  44; 6HR PCP:  0.01;

DES MOINES IA  FOG       40  39  97 E9        29.53R VSB 1/2
6HR MIN TEMP:  40; 6HR MAX TEMP:  43;

DAVENPORT IA   CLOUDY    41  40  96 E7        29.60R FOG
6HR MIN TEMP:  41; 6HR MAX TEMP:  44;

CHICAGO IL     CLOUDY    41  41 100 SE8       29.64F FOG
6HR MIN TEMP:  40; 6HR MAX TEMP:  42; 6HR PCP: TRACE;

EAU CLAIRE WI  CLOUDY    35  35 100 SE7       29.60S
6HR MIN TEMP:  35; 6HR MAX TEMP:  36;

LA CROSSE WI   CLOUDY    40  37  89 VRB3      29.60F FOG
6HR MIN TEMP:  40; 6HR MAX TEMP:  41;

$$

  *****  SOME NATIONAL WEATHER *****

CITY           SKY/WX    TMP DP  RH WIND       PRES   REMARKS
LA GUARDIA NY  LGT RAIN  42  37  82 SE7       29.93F
6HR MIN TEMP:  42; 6HR MAX TEMP:  46; 6HR PCP:  0.06;              C1F1C2F2C3F3C4F4C5F5C6F6C7F7C8F8C9F9CaFaCbFbCcFcCdFdCe!



USA.gov is the U.S. government's official web portal to all federal, state and local government web resources and services.